Stündliche Wetter Abercorn

Heute, 17 Juni, Donnerstag

Zeit Temperatur Niederschläge Wind Luftdruck Luftfeuchtigkeit
00:00 +9°C° 0 mm 2 m/S 740 mmHg 86%
01:00 +8°C° 0 mm 2 m/S 740 mmHg 88%
02:00 +8°C° 0 mm 2 m/S 740 mmHg 89%
03:00 +7°C° 0 mm 2 m/S 740 mmHg 90%
04:00 +7°C° 0 mm 2 m/S 740 mmHg 91%
05:00 +9°C° 0 mm 2 m/S 741 mmHg 83%
06:00 +12°C° 0 mm 2 m/S 741 mmHg 75%
07:00 +14°C° 0 mm 2 m/S 741 mmHg 67%
08:00 +14°C° 0 mm 3 m/S 741 mmHg 60%
09:00 +17°C° 0 mm 3 m/S 741 mmHg 53%
10:00 +19°C° 0 mm 4 m/S 741 mmHg 45%
11:00 +19°C° 0 mm 4 m/S 741 mmHg 44%
12:00 +20°C° 0 mm 4 m/S 741 mmHg 43%
13:00 +20°C° 0 mm 4 m/S 741 mmHg 42%
14:00 +20°C° 0 mm 4 m/S 741 mmHg 44%
15:00 +20°C° 0 mm 4 m/S 741 mmHg 46%
16:00 +20°C° 0 mm 4 m/S 741 mmHg 48%
17:00 +19°C° 0 mm 3 m/S 741 mmHg 56%
18:00 +17°C° 0 mm 2 m/S 742 mmHg 65%
19:00 +16°C° 0 mm 1 m/S 742 mmHg 73%
20:00 +15°C° 0 mm 2 m/S 742 mmHg 71%
21:00 +14°C° 0 mm 2 m/S 742 mmHg 70%
22:00 +13°C° 0 mm 2 m/S 742 mmHg 68%
23:00 +13°C° 0 mm 2 m/S 742 mmHg 68%

Morgen, 18 Juni, Freitag

Zeit Temperatur Niederschläge Wind Luftdruck Luftfeuchtigkeit
00:00 +13°C° 0 mm 2 m/S 743 mmHg 68%
01:00 +12°C° 0 mm 2 m/S 743 mmHg 68%
02:00 +12°C° 0 mm 2 m/S 743 mmHg 67%
03:00 +12°C° 0 mm 2 m/S 742 mmHg 67%
04:00 +12°C° 0 mm 2 m/S 742 mmHg 66%
05:00 +14°C° 0 mm 2 m/S 742 mmHg 63%
06:00 +15°C° 0 mm 2 m/S 742 mmHg 61%
07:00 +17°C° 0 mm 3 m/S 742 mmHg 58%
08:00 +19°C° 0 mm 3 m/S 742 mmHg 51%
09:00 +21°C° 0 mm 3 m/S 742 mmHg 45%
10:00 +23°C° 0 mm 4 m/S 742 mmHg 38%
11:00 +25°C° 0 mm 4 m/S 741 mmHg 39%
12:00 +26°C° 0 mm 4 m/S 740 mmHg 40%
13:00 +27°C° 0 mm 4 m/S 740 mmHg 41%
14:00 +26°C° 0 mm 4 m/S 739 mmHg 45%
15:00 +26°C° 0 mm 5 m/S 739 mmHg 48%
16:00 +25°C° 0 mm 5 m/S 739 mmHg 52%
17:00 +22°C° 0.1 mm 4 m/S 739 mmHg 61%
18:00 +20°C° 0.1 mm 4 m/S 739 mmHg 70%
19:00 +18°C° 0.1 mm 3 m/S 739 mmHg 78%
20:00 +18°C° 0.1 mm 3 m/S 739 mmHg 83%
21:00 +17°C° 0.1 mm 3 m/S 738 mmHg 87%
22:00 +17°C° 0.1 mm 3 m/S 738 mmHg 91%
23:00 +17°C° 0.9 mm 3 m/S 738 mmHg 93%

übermorgen, 19 Juni, Samstag

Zeit Temperatur Niederschläge Wind Luftdruck Luftfeuchtigkeit
00:00 +17°C° 0.9 mm 3 m/S 738 mmHg 96%
01:00 +17°C° 0.9 mm 3 m/S 737 mmHg 98%
02:00 +17°C° 0.8 mm 2 m/S 737 mmHg 98%
03:00 +17°C° 0.8 mm 2 m/S 737 mmHg 97%
04:00 +17°C° 0.8 mm 2 m/S 737 mmHg 97%
05:00 +18°C° 0 mm 2 m/S 737 mmHg 96%
06:00 +19°C° 0 mm 2 m/S 737 mmHg 94%
07:00 +19°C° 0 mm 2 m/S 737 mmHg 93%
08:00 +21°C° 0 mm 2 m/S 737 mmHg 80%
09:00 +24°C° 0 mm 2 m/S 737 mmHg 67%
10:00 +26°C° 0 mm 2 m/S 737 mmHg 54%
11:00 +27°C° 0 mm 2 m/S 736 mmHg 52%
12:00 +27°C° 0 mm 2 m/S 736 mmHg 50%
13:00 +28°C° 0 mm 2 m/S 735 mmHg 48%
14:00 +25°C° 0.7 mm 2 m/S 735 mmHg 63%
15:00 +23°C° 0.7 mm 1 m/S 735 mmHg 78%
16:00 +21°C° 0.7 mm 1 m/S 735 mmHg 92%
17:00 +20°C° 0.4 mm 1 m/S 735 mmHg 92%
18:00 +20°C° 0.4 mm 1 m/S 735 mmHg 93%
19:00 +17°C° 0.4 mm 0 m/S 735 mmHg 93%
20:00 +17°C° 0 mm 0 m/S 736 mmHg 93%
21:00 +16°C° 0 mm 0 m/S 736 mmHg 94%
22:00 +15°C° 0 mm 0 m/S 736 mmHg 94%
23:00 +15°C° 0 mm 1 m/S 736 mmHg 94%

20 Juni, Sonntag

Zeit Temperatur Niederschläge Wind Luftdruck Luftfeuchtigkeit
00:00 +15°C° 0 mm 1 m/S 736 mmHg 95%
01:00 +15°C° 0 mm 1 m/S 736 mmHg 95%
02:00 +15°C° 0 mm 1 m/S 736 mmHg 95%
03:00 +15°C° 0 mm 1 m/S 736 mmHg 95%
04:00 +16°C° 0 mm 1 m/S 737 mmHg 96%
05:00 +18°C° 0 mm 1 m/S 737 mmHg 94%
06:00 +19°C° 0 mm 1 m/S 737 mmHg 93%
07:00 +20°C° 0 mm 1 m/S 738 mmHg 92%
08:00 +20°C° 0.2 mm 2 m/S 738 mmHg 83%
09:00 +21°C° 0.2 mm 3 m/S 738 mmHg 75%
10:00 +22°C° 0.2 mm 3 m/S 738 mmHg 66%
11:00 +23°C° 0 mm 4 m/S 738 mmHg 61%
12:00 +25°C° 0 mm 4 m/S 738 mmHg 56%
13:00 +25°C° 0 mm 4 m/S 738 mmHg 51%
14:00 +25°C° 0 mm 4 m/S 738 mmHg 52%
15:00 +25°C° 0 mm 3 m/S 738 mmHg 53%
16:00 +25°C° 0 mm 3 m/S 739 mmHg 54%
17:00 +23°C° 0 mm 2 m/S 739 mmHg 62%
18:00 +22°C° 0 mm 1 m/S 739 mmHg 70%
19:00 +20°C° 0 mm 1 m/S 739 mmHg 78%
20:00 +19°C° 0 mm 1 m/S 739 mmHg 79%
21:00 +18°C° 0 mm 1 m/S 739 mmHg 80%
22:00 +16°C° 0 mm 1 m/S 739 mmHg 81%
23:00 +16°C° 0 mm 1 m/S 739 mmHg 81%

21 Juni, Montag

Zeit Temperatur Niederschläge Wind Luftdruck Luftfeuchtigkeit
00:00 +16°C° 0 mm 1 m/S 738 mmHg 80%
01:00 +15°C° 0 mm 1 m/S 738 mmHg 79%
02:00 +15°C° 0 mm 1 m/S 738 mmHg 81%
03:00 +15°C° 0 mm 1 m/S 738 mmHg 83%
04:00 +15°C° 0 mm 1 m/S 738 mmHg 85%
05:00 +17°C° 0 mm 2 m/S 738 mmHg 80%
06:00 +18°C° 0 mm 2 m/S 738 mmHg 76%
07:00 +20°C° 0 mm 2 m/S 737 mmHg 71%
08:00 +24°C° 0 mm 2 m/S 737 mmHg 65%
09:00 +26°C° 0 mm 3 m/S 737 mmHg 60%
10:00 +28°C° 0 mm 3 m/S 737 mmHg 54%
11:00 +29°C° 0 mm 4 m/S 736 mmHg 53%
12:00 +32°C° 0 mm 4 m/S 736 mmHg 52%
13:00 +33°C° 0 mm 4 m/S 735 mmHg 51%
14:00 +33°C° 0 mm 4 m/S 735 mmHg 52%
15:00 +33°C° 0 mm 5 m/S 734 mmHg 52%
16:00 +33°C° 0 mm 5 m/S 734 mmHg 53%
17:00 +30°C° 0.3 mm 4 m/S 734 mmHg 63%
18:00 +28°C° 0.3 mm 4 m/S 734 mmHg 73%
19:00 +26°C° 0.3 mm 3 m/S 734 mmHg 83%
20:00 +24°C° 1.3 mm 3 m/S 734 mmHg 87%
21:00 +22°C° 1.3 mm 3 m/S 734 mmHg 91%
22:00 +21°C° 1.3 mm 3 m/S 734 mmHg 95%
23:00 +20°C° 0.7 mm 2 m/S 734 mmHg 96%

22 Juni, Dienstag

Zeit Temperatur Niederschläge Wind Luftdruck Luftfeuchtigkeit
00:00 +20°C° 0.7 mm 2 m/S 734 mmHg 96%
01:00 +20°C° 0.7 mm 2 m/S 734 mmHg 97%
02:00 +21°C° 0.8 mm 1 m/S 734 mmHg 97%
03:00 +21°C° 0.8 mm 1 m/S 734 mmHg 98%
04:00 +21°C° 0.8 mm 1 m/S 734 mmHg 98%
05:00 +20°C° 0.6 mm 2 m/S 734 mmHg 98%
06:00 +20°C° 0.6 mm 2 m/S 734 mmHg 98%
07:00 +20°C° 0.6 mm 2 m/S 734 mmHg 98%
08:00 +18°C° 1.2 mm 2 m/S 735 mmHg 98%
09:00 +17°C° 1.2 mm 3 m/S 735 mmHg 98%
10:00 +14°C° 1.2 mm 3 m/S 735 mmHg 98%
11:00 +13°C° 3.6 mm 3 m/S 736 mmHg 98%
12:00 +12°C° 3.6 mm 3 m/S 736 mmHg 98%
13:00 +11°C° 3.6 mm 3 m/S 736 mmHg 98%
14:00 +10°C° 1.4 mm 3 m/S 737 mmHg 98%
15:00 +10°C° 1.4 mm 3 m/S 737 mmHg 98%
16:00 +9°C° 1.4 mm 3 m/S 737 mmHg 98%
17:00 +9°C° 2.4 mm 3 m/S 737 mmHg 98%
18:00 +9°C° 2.4 mm 2 m/S 737 mmHg 98%
19:00 +8°C° 2.4 mm 2 m/S 738 mmHg 98%
20:00 +8°C° 1.4 mm 2 m/S 738 mmHg 98%
21:00 +8°C° 1.4 mm 2 m/S 738 mmHg 98%
22:00 +8°C° 1.4 mm 2 m/S 738 mmHg 98%
23:00 +8°C° 0 mm 2 m/S 738 mmHg 98%
Mehr zeigen

Wir brauchen deine Erlaubnis

Meteoprog und unser Service Anbieter werden persönliche Daten aufbewahren, so wie Cookies, Geräte Bezeichnung oder ähnliche Technologien von deinem Gerät und Prozess, so wie Persönliche Daten Inhalte und Werbungen, genauso wie social Media und den Verkehr zu analysieren.

  • Aufbewahrung und/oder Zugang zu deiner Geräte Informationen.

    Cookies, Geräte Bezeichnung oder andere Informationen, können aufbewahrt oder Zugang zu deinem Gerät erhalten, für den Grund, der oben angegeben wird.

  • Personalisierte Werbung und Inhalte, Messungen, Einblick in das Publikum und Produkt Entwicklung.

    Werbungen und Inhalte können personalisiert werden, basierend auf ein Profil. Mehr Daten können besser personalisierte Werbungen und Inhalte hinzufügen. Werbung und Inhalte können gezeigt und gemessen werden. Einblicke über das Publikum, welche die Werbung gesehen haben und den Inhalt, können abgeleitet werden. So wie Daten können genutzt werden, um es zu verbessern oder die Benutzer Erfahrung zu verbessern das System und die Software.

Wenn du “Ich stimme zu” klickst, erlaubst du uns, die Cookies zu benutzen die Geräte Bezeichnung, den Web oder ähnliche Technologien zu benutzen. Deine Settings, können in deinem Gerät bei deinem Browser geändert werden.

Für den bestimmten Zweck, berechtigten Interessen beruhen darauf, mehr als auf den Inhalt. Du kannst mehr darüber in unseren Privaten und Cookie Politik lesen.